This demonstration page uses our WeatherBlox Daily Observations layout. Learn more.

Left ArrowRight Arrow

Hourly Observations for October 12, 2016

Temp ( °F °C ) Dew Point ( °F °C ) Humidity (%) Winds ( mph kmh ) Pressure ( in mb ) Visibility ( mi km ) Precip ( " mm )
12:53 am 00:53 Clear 70 21.1 61 16.1 73 73 SE 10 17 29.91 1013 10 16 0.00 0.00
1:53 am 01:53 Clear 69 20.6 61 16.1 76 76 SE 12 19 29.90 1013 10 16 0.00 0.00
2:53 am 02:53 Clear 67 19.4 61 16.1 81 81 SE 10 17 29.90 1012 10 16 0.00 0.00
3:53 am 03:53 Clear 65 18.3 60 15.6 84 84 SSE 7 11 29.89 1012 10 16 0.00 0.00
4:53 am 04:53 Clear 64 17.8 59 15 84 84 SE 6 9 29.89 1012 10 16 0.00 0.00
5:53 am 05:53 Clear 63 17.2 59 15 87 87 SE 9 15 29.90 1012 10 16 0.00 0.00
6:53 am 06:53 Clear 62 16.7 58 14.4 86 86 E 5 7 29.92 1013 10 16 0.00 0.00
7:53 am 07:53 Clear 61 16.1 58 14.4 90 90 ESE 5 7 29.95 1014 10 16 0.00 0.00
8:53 am 08:53 Sunny 65 18.3 58 14.4 78 78 SE 6 9 29.97 1015 10 16 0.00 0.00
9:53 am 09:53 Sunny 70 21.1 59 15 68 68 SSE 8 13 29.98 1015 10 16 0.00 0.00
10:53 am 10:53 Sunny 76 24.4 60 15.6 58 58 Calm 29.98 1015 10 16 0.00 0.00
11:53 am 11:53 Sunny 81 27.2 59 15 47 47 VRB 3 6 29.97 1015 10 16 0.00 0.00
12:53 pm 12:53 Sunny 86 30 57 13.9 37 37 VRB 6 9 29.95 1014 10 16 0.00 0.00
1:53 pm 13:53 Sunny 90 32.2 54 12.2 29 29 NNE 8 13 29.92 1013 10 16 0.00 0.00
2:53 pm 14:53 Sunny 91 32.8 51 10.6 26 26 NNE 8 13 29.90 1012 10 16 0.00 0.00
3:53 pm 15:53 Sunny 93 33.9 52 11.1 25 25 VRB 3 6 29.88 1012 10 16 0.00 0.00
4:53 pm 16:53 Sunny 92 33.3 50 10 24 24 Calm 29.87 1012 10 16 0.00 0.00
5:51 pm 17:51 Mostly Sunny 88 31 52 11 29 29 ENE 22 35 29.83 1010 10 16 0.00 0.00
5:53 pm 17:53 Mostly Sunny 86 30 52 11.1 31 31 ENE 20 31 29.89 1012 10 16 0.00 0.00
6:53 pm 18:53 Sunny 80 26.7 53 11.7 39 39 NE 14 22 29.93 1013 10 16 0.00 0.03
7:53 pm 19:53 Clear 74 23.3 51 10.6 45 45 NE 14 22 29.96 1015 10 16 0.00 0.00
8:53 pm 20:53 Clear 70 21.1 50 10 49 49 ENE 17 28 29.98 1015 10 16 0.00 0.00
9:53 pm 21:53 Clear 67 19.4 49 9.4 53 53 NE 10 17 30.02 1017 10 16 0.00 0.00
10:53 pm 22:53 Mostly Clear 65 18.3 48 8.9 54 54 ENE 13 20 30.03 1017 10 16 0.00 0.00
11:53 pm 23:53 Mostly Clear 63 17.2 48 8.9 58 58 NE 10 17 30.04 1017 10 16 0.00 0.00

Powered by AerisWeather